When you browse on this site, cookies collect data to enhance your experience and personalize the content and advertising you see.
Visit our Privacy Policy to learn more. By continuing to use the site, you agree to this use of cookies and data.
  • In Deutschland
  • Länderverzeichnis
  • Für 7 Tage
  • Wassertemperatur
  • Wetterkarte
  • Widgets
  • user-avatar
    Anmelden

    Stündliche Wetter Korçe

    Heute, 12 Dezember, Donnerstag

    Zeit Temperatur Niederschläge Wind Luftdruck Luftfeuchtigkeit
    00:00 +1°C° 0 mm 2 m/S 658 mmHg 91%
    01:00 +1°C° 0 mm 2 m/S 658 mmHg 91%
    02:00 +1°C° 0 mm 2 m/S 658 mmHg 91%
    03:00 +1°C° 0 mm 2 m/S 657 mmHg 91%
    04:00 +2°C° 0 mm 1 m/S 657 mmHg 91%
    05:00 +2°C° 0 mm 1 m/S 657 mmHg 91%
    06:00 +2°C° 0 mm 1 m/S 657 mmHg 91%
    07:00 +1°C° 0 mm 1 m/S 657 mmHg 91%
    08:00 +3°C° 0 mm 1 m/S 658 mmHg 87%
    09:00 +4°C° 0 mm 1 m/S 658 mmHg 83%
    10:00 +5°C° 0 mm 1 m/S 658 mmHg 79%
    11:00 +6°C° 0 mm 1 m/S 658 mmHg 77%
    12:00 +6°C° 0 mm 1 m/S 658 mmHg 75%
    13:00 +7°C° 0 mm 1 m/S 658 mmHg 73%
    14:00 +6°C° 0.2 mm 1 m/S 658 mmHg 78%
    15:00 +5°C° 0.2 mm 1 m/S 657 mmHg 84%
    16:00 +5°C° 0.2 mm 1 m/S 657 mmHg 90%
    17:00 +5°C° 0.4 mm 1 m/S 657 mmHg 92%
    18:00 +4°C° 0.4 mm 1 m/S 657 mmHg 93%
    19:00 +4°C° 0.4 mm 1 m/S 657 mmHg 95%
    20:00 +3°C° 0.1 mm 2 m/S 657 mmHg 95%
    21:00 +3°C° 0.1 mm 2 m/S 657 mmHg 95%
    22:00 +3°C° 0.1 mm 2 m/S 657 mmHg 95%
    23:00 +3°C° 0 mm 2 m/S 657 mmHg 95%

    Morgen, 13 Dezember, Freitag

    Zeit Temperatur Niederschläge Wind Luftdruck Luftfeuchtigkeit
    00:00 +2°C° 0 mm 2 m/S 656 mmHg 96%
    01:00 +2°C° 0 mm 2 m/S 656 mmHg 96%
    02:00 +2°C° 0.6 mm 2 m/S 656 mmHg 96%
    03:00 +2°C° 0.6 mm 2 m/S 656 mmHg 96%
    04:00 +3°C° 0.6 mm 1 m/S 655 mmHg 96%
    05:00 +3°C° 0.3 mm 1 m/S 655 mmHg 96%
    06:00 +3°C° 0.3 mm 1 m/S 655 mmHg 96%
    07:00 +2°C° 0.3 mm 2 m/S 656 mmHg 96%
    08:00 +3°C° 0.3 mm 2 m/S 656 mmHg 95%
    09:00 +3°C° 0.3 mm 2 m/S 656 mmHg 93%
    10:00 +4°C° 0.3 mm 2 m/S 656 mmHg 92%
    11:00 +4°C° 0.2 mm 2 m/S 656 mmHg 87%
    12:00 +5°C° 0.2 mm 2 m/S 656 mmHg 81%
    13:00 +5°C° 0.2 mm 3 m/S 655 mmHg 76%
    14:00 +5°C° 0 mm 2 m/S 655 mmHg 80%
    15:00 +4°C° 0 mm 2 m/S 654 mmHg 84%
    16:00 +3°C° 0 mm 2 m/S 654 mmHg 88%
    17:00 +3°C° 0.1 mm 2 m/S 653 mmHg 90%
    18:00 +2°C° 0.1 mm 3 m/S 653 mmHg 92%
    19:00 +2°C° 0.1 mm 3 m/S 653 mmHg 94%
    20:00 +2°C° 0.4 mm 3 m/S 652 mmHg 94%
    21:00 +1°C° 0.4 mm 4 m/S 652 mmHg 94%
    22:00 +3°C° 0.4 mm 4 m/S 651 mmHg 95%
    23:00 +3°C° 4.3 mm 4 m/S 650 mmHg 95%

    übermorgen, 14 Dezember, Samstag

    Zeit Temperatur Niederschläge Wind Luftdruck Luftfeuchtigkeit
    00:00 +3°C° 4.3 mm 4 m/S 649 mmHg 96%
    01:00 +1°C° 4.3 mm 4 m/S 648 mmHg 97%
    02:00 +2°C° 6.8 mm 3 m/S 648 mmHg 97%
    03:00 +1°C° 6.8 mm 3 m/S 647 mmHg 97%
    04:00 +2°C° 6.8 mm 2 m/S 647 mmHg 97%
    05:00 +2°C° 1.5 mm 2 m/S 647 mmHg 97%
    06:00 +2°C° 1.5 mm 2 m/S 647 mmHg 97%
    07:00 +2°C° 1.5 mm 2 m/S 648 mmHg 97%
    08:00 +2°C° 1.5 mm 2 m/S 648 mmHg 97%
    09:00 +2°C° 1.5 mm 2 m/S 649 mmHg 96%
    10:00 +3°C° 1.5 mm 1 m/S 649 mmHg 96%
    11:00 +4°C° 0.5 mm 1 m/S 650 mmHg 95%
    12:00 +4°C° 0.5 mm 1 m/S 650 mmHg 94%
    13:00 +3°C° 0.5 mm 2 m/S 651 mmHg 93%
    14:00 +4°C° 0.1 mm 2 m/S 652 mmHg 94%
    15:00 +4°C° 0.1 mm 2 m/S 652 mmHg 95%
    16:00 +4°C° 0.1 mm 2 m/S 653 mmHg 96%
    17:00 +4°C° 0.1 mm 2 m/S 655 mmHg 96%
    18:00 +3°C° 0.1 mm 2 m/S 656 mmHg 96%
    19:00 +3°C° 0.1 mm 2 m/S 657 mmHg 96%
    20:00 +3°C° 0 mm 2 m/S 658 mmHg 95%
    21:00 +3°C° 0 mm 2 m/S 659 mmHg 95%
    22:00 +3°C° 0 mm 2 m/S 660 mmHg 94%
    23:00 +3°C° 0 mm 2 m/S 660 mmHg 94%

    15 Dezember, Sonntag

    Zeit Temperatur Niederschläge Wind Luftdruck Luftfeuchtigkeit
    00:00 +3°C° 0 mm 2 m/S 661 mmHg 94%
    01:00 +3°C° 0 mm 2 m/S 661 mmHg 95%
    02:00 +3°C° 0 mm 2 m/S 662 mmHg 94%
    03:00 +3°C° 0 mm 2 m/S 662 mmHg 94%
    04:00 +3°C° 0 mm 2 m/S 663 mmHg 93%
    05:00 +3°C° 0 mm 2 m/S 663 mmHg 93%
    06:00 +3°C° 0 mm 2 m/S 664 mmHg 92%
    07:00 +3°C° 0 mm 2 m/S 664 mmHg 91%
    08:00 +4°C° 0 mm 2 m/S 665 mmHg 90%
    09:00 +6°C° 0 mm 2 m/S 666 mmHg 88%
    10:00 +7°C° 0 mm 2 m/S 667 mmHg 87%
    11:00 +8°C° 0 mm 2 m/S 667 mmHg 85%
    12:00 +9°C° 0 mm 1 m/S 668 mmHg 83%
    13:00 +10°C° 0 mm 1 m/S 668 mmHg 81%
    14:00 +9°C° 0 mm 1 m/S 668 mmHg 84%
    15:00 +8°C° 0 mm 1 m/S 668 mmHg 88%
    16:00 +7°C° 0 mm 1 m/S 668 mmHg 91%
    17:00 +7°C° 0 mm 1 m/S 668 mmHg 91%
    18:00 +6°C° 0 mm 1 m/S 668 mmHg 90%
    19:00 +6°C° 0 mm 1 m/S 669 mmHg 90%
    20:00 +6°C° 0 mm 1 m/S 669 mmHg 90%
    21:00 +6°C° 0 mm 1 m/S 669 mmHg 90%
    22:00 +6°C° 0 mm 1 m/S 670 mmHg 90%
    23:00 +6°C° 0 mm 1 m/S 670 mmHg 90%

    16 Dezember, Montag

    Zeit Temperatur Niederschläge Wind Luftdruck Luftfeuchtigkeit
    00:00 +6°C° 0 mm 1 m/S 670 mmHg 90%
    01:00 +5°C° 0 mm 1 m/S 670 mmHg 91%
    02:00 +5°C° 0 mm 1 m/S 670 mmHg 90%
    03:00 +5°C° 0 mm 1 m/S 670 mmHg 90%
    04:00 +5°C° 0 mm 1 m/S 670 mmHg 90%
    05:00 +5°C° 0 mm 1 m/S 670 mmHg 90%
    06:00 +5°C° 0 mm 1 m/S 670 mmHg 90%
    07:00 +5°C° 0 mm 1 m/S 671 mmHg 90%
    08:00 +6°C° 0 mm 1 m/S 671 mmHg 87%
    09:00 +8°C° 0 mm 1 m/S 672 mmHg 85%
    10:00 +9°C° 0 mm 1 m/S 672 mmHg 82%
    11:00 +10°C° 0 mm 1 m/S 672 mmHg 79%
    12:00 +10°C° 0 mm 1 m/S 672 mmHg 77%
    13:00 +11°C° 0 mm 1 m/S 672 mmHg 74%
    14:00 +10°C° 0 mm 1 m/S 672 mmHg 78%
    15:00 +9°C° 0 mm 1 m/S 671 mmHg 83%
    16:00 +8°C° 0 mm 1 m/S 671 mmHg 88%
    17:00 +7°C° 0 mm 1 m/S 671 mmHg 89%
    18:00 +7°C° 0 mm 1 m/S 671 mmHg 90%
    19:00 +6°C° 0 mm 1 m/S 671 mmHg 90%
    20:00 +6°C° 0 mm 1 m/S 671 mmHg 90%
    21:00 +6°C° 0 mm 1 m/S 671 mmHg 89%
    22:00 +6°C° 0 mm 1 m/S 671 mmHg 89%
    23:00 +5°C° 0 mm 1 m/S 671 mmHg 88%

    17 Dezember, Dienstag

    Zeit Temperatur Niederschläge Wind Luftdruck Luftfeuchtigkeit
    00:00 +5°C° 0 mm 1 m/S 671 mmHg 88%
    01:00 +5°C° 0 mm 1 m/S 670 mmHg 88%
    02:00 +5°C° 0 mm 1 m/S 670 mmHg 87%
    03:00 +5°C° 0 mm 1 m/S 670 mmHg 86%
    04:00 +5°C° 0 mm 1 m/S 670 mmHg 84%
    05:00 +5°C° 0 mm 1 m/S 670 mmHg 82%
    06:00 +5°C° 0 mm 1 m/S 670 mmHg 80%
    07:00 +5°C° 0 mm 1 m/S 670 mmHg 78%
    08:00 +6°C° 0 mm 1 m/S 671 mmHg 75%
    09:00 +8°C° 0 mm 1 m/S 671 mmHg 71%
    10:00 +10°C° 0 mm 1 m/S 672 mmHg 68%
    11:00 +10°C° 0 mm 1 m/S 672 mmHg 66%
    12:00 +11°C° 0 mm 1 m/S 672 mmHg 64%
    13:00 +12°C° 0 mm 1 m/S 671 mmHg 62%
    14:00 +10°C° 0 mm 1 m/S 671 mmHg 67%
    15:00 +9°C° 0 mm 1 m/S 671 mmHg 73%
    16:00 +7°C° 0 mm 0 m/S 670 mmHg 79%
    17:00 +7°C° 0 mm 1 m/S 670 mmHg 79%
    18:00 +7°C° 0 mm 1 m/S 670 mmHg 79%
    19:00 +6°C° 0 mm 1 m/S 670 mmHg 79%
    20:00 +6°C° 0 mm 1 m/S 670 mmHg 76%
    21:00 +6°C° 0 mm 1 m/S 670 mmHg 73%
    22:00 +6°C° 0 mm 1 m/S 671 mmHg 71%
    23:00 +5°C° 0 mm 1 m/S 671 mmHg 70%
    Mehr zeigen